BCY2099 EGSH-EGHI

Flight info

Callsign BCY2099
Flight time 0h 45m
Altitude 24000
Route BKY/N0417F230 DCT LAM/N0417F240 Q3 OCK DCT MID L620 SAM
Aircraft RJ85/M-SDFGIRWY/LB1

Departure

Time 2026-05-08 08:33
Airport Norwich Airport (EGSH)

Arrival

Time 2026-05-08 09:18
Airport Southampton Airport (EGHI)
Time Latitude Longitude Altitude Speed Heading
2026-05-08 08:20 52.67023 1.27739 121 ft 0 kts 245°
2026-05-08 08:24 52.67024 1.27741 121 ft 2 kts 245°
2026-05-08 08:24 52.67034 1.27779 121 ft 4 kts 247°
2026-05-08 08:24 52.67042 1.27812 118 ft 4 kts 256°
2026-05-08 08:25 52.67042 1.27855 118 ft 4 kts 283°
2026-05-08 08:25 52.67036 1.27890 119 ft 4 kts 285°
2026-05-08 08:25 52.67036 1.27892 119 ft 0 kts 285°
2026-05-08 08:27 52.67037 1.27882 120 ft 3 kts 285°
2026-05-08 08:27 52.67049 1.27833 118 ft 7 kts 294°
2026-05-08 08:27 52.67089 1.27780 120 ft 8 kts 359°
2026-05-08 08:27 52.67144 1.27837 118 ft 10 kts 36°
2026-05-08 08:28 52.67201 1.27921 121 ft 12 kts 51°
2026-05-08 08:28 52.67278 1.28018 120 ft 16 kts 35°
2026-05-08 08:28 52.67372 1.28135 121 ft 18 kts 43°
2026-05-08 08:28 52.67479 1.28270 120 ft 20 kts 36°
2026-05-08 08:29 52.67574 1.28380 119 ft 10 kts 14°
2026-05-08 08:29 52.67594 1.28302 117 ft 10 kts 273°
2026-05-08 08:29 52.67590 1.28108 121 ft 24 kts 268°
2026-05-08 08:29 52.67586 1.27756 118 ft 38 kts 269°
2026-05-08 08:30 52.67586 1.27314 121 ft 30 kts 270°
2026-05-08 08:30 52.67532 1.27139 121 ft 14 kts 263°
2026-05-08 08:30 52.67574 1.26932 123 ft 4 kts 358°
2026-05-08 08:31 52.67585 1.26951 123 ft 0 kts 89°
2026-05-08 08:31 52.67586 1.27093 120 ft 45 kts 89°
2026-05-08 08:31 52.67594 1.28041 119 ft 117 kts 90°
2026-05-08 08:31 52.67596 1.28500 129 ft 133 kts 89°
2026-05-08 08:33 52.67610 1.29742 442 ft 148 kts 90°
2026-05-08 08:33 52.67646 1.31466 1153 ft 154 kts 86°
2026-05-08 08:33 52.68103 1.33151 1733 ft 171 kts 48°
2026-05-08 08:33 52.69181 1.34023 2404 ft 183 kts
2026-05-08 08:34 52.70491 1.33623 2805 ft 214 kts 330°
2026-05-08 08:34 52.71541 1.31789 3086 ft 226 kts 289°
2026-05-08 08:34 52.71618 1.29380 3960 ft 205 kts 249°
2026-05-08 08:34 52.70775 1.27504 4379 ft 212 kts 216°
2026-05-08 08:35 52.69565 1.25967 4785 ft 227 kts 217°
2026-05-08 08:35 52.68281 1.24310 5167 ft 241 kts 214°
2026-05-08 08:35 52.66855 1.22719 5408 ft 254 kts 213°
2026-05-08 08:35 52.65383 1.20991 5747 ft 264 kts 217°
2026-05-08 08:36 52.63948 1.19079 6322 ft 267 kts 220°
2026-05-08 08:36 52.62559 1.17022 6917 ft 270 kts 223°
2026-05-08 08:36 52.61212 1.14881 7596 ft 270 kts 225°
2026-05-08 08:36 52.59888 1.12652 8255 ft 273 kts 227°
2026-05-08 08:37 52.58598 1.10405 8956 ft 275 kts 229°
2026-05-08 08:37 52.57295 1.08095 9714 ft 276 kts 230°
2026-05-08 08:37 52.55991 1.05759 10433 ft 279 kts 230°
2026-05-08 08:37 52.54684 1.03393 11130 ft 281 kts 230°
2026-05-08 08:38 52.53361 1.00998 11831 ft 284 kts 229°
2026-05-08 08:38 52.52012 0.98596 12565 ft 287 kts 228°
2026-05-08 08:38 52.50649 0.96164 13259 ft 291 kts 227°
2026-05-08 08:38 52.49273 0.93704 13932 ft 294 kts 227°
2026-05-08 08:39 52.48354 0.92059 14329 ft 296 kts 227°
2026-05-08 08:39 52.46950 0.89578 14920 ft 298 kts 226°
2026-05-08 08:39 52.45522 0.87085 15502 ft 300 kts 226°
2026-05-08 08:39 52.43628 0.83766 16229 ft 302 kts 227°
2026-05-08 08:40 52.42658 0.82054 16593 ft 304 kts 226°
2026-05-08 08:40 52.41225 0.79546 17101 ft 306 kts 226°
2026-05-08 08:40 52.39763 0.76997 17606 ft 308 kts 226°
2026-05-08 08:40 52.38300 0.74415 18097 ft 310 kts 226°
2026-05-08 08:41 52.36819 0.71825 18542 ft 312 kts 226°
2026-05-08 08:41 52.35334 0.69226 18944 ft 314 kts 226°
2026-05-08 08:41 52.33845 0.66592 19308 ft 316 kts 227°
2026-05-08 08:41 52.32340 0.63964 19667 ft 318 kts 226°
2026-05-08 08:42 52.30831 0.61317 20014 ft 319 kts 227°
2026-05-08 08:42 52.29312 0.58648 20355 ft 321 kts 226°
2026-05-08 08:42 52.27793 0.56017 20672 ft 323 kts 226°
2026-05-08 08:42 52.26251 0.53333 20993 ft 325 kts 226°
2026-05-08 08:43 52.24693 0.50641 21314 ft 327 kts 226°
2026-05-08 08:43 52.23133 0.47917 21629 ft 329 kts 226°
2026-05-08 08:43 52.21558 0.45191 21934 ft 331 kts 226°
2026-05-08 08:43 52.19972 0.42438 22241 ft 333 kts 227°
2026-05-08 08:44 52.18387 0.39668 22543 ft 335 kts 226°
2026-05-08 08:44 52.16781 0.36911 22852 ft 337 kts 226°
2026-05-08 08:44 52.15174 0.34115 23163 ft 338 kts 227°
2026-05-08 08:44 52.13573 0.31346 23462 ft 340 kts 226°
2026-05-08 08:45 52.11940 0.28551 23745 ft 342 kts 226°
2026-05-08 08:45 52.10306 0.25713 23962 ft 344 kts 227°
2026-05-08 08:45 52.08664 0.22875 24048 ft 340 kts 226°
2026-05-08 08:45 52.07038 0.20106 24074 ft 338 kts 226°
2026-05-08 08:46 52.05423 0.17322 24080 ft 338 kts 226°
2026-05-08 08:46 52.03802 0.14550 24078 ft 339 kts 226°
2026-05-08 08:46 52.02173 0.11750 24099 ft 345 kts 227°
2026-05-08 08:46 52.00499 0.08880 24111 ft 354 kts 225°
2026-05-08 08:47 51.98597 0.06354 24119 ft 362 kts 213°
2026-05-08 08:47 51.96399 0.04261 24127 ft 372 kts 208°
2026-05-08 08:47 51.94065 0.02350 24128 ft 380 kts 206°
2026-05-08 08:47 51.91636 0.00516 24125 ft 389 kts 205°
2026-05-08 08:48 51.89150 -0.01284 24123 ft 397 kts 204°
2026-05-08 08:48 51.86598 -0.03137 24116 ft 403 kts 205°
2026-05-08 08:48 51.84033 -0.05013 24113 ft 405 kts 205°
2026-05-08 08:48 51.81467 -0.06890 24108 ft 405 kts 205°
2026-05-08 08:49 51.78909 -0.08793 24101 ft 403 kts 205°
2026-05-08 08:49 51.76380 -0.10706 24099 ft 401 kts 205°
2026-05-08 08:49 51.73861 -0.12616 24102 ft 401 kts 205°
2026-05-08 08:49 51.71327 -0.14495 24102 ft 401 kts 205°
2026-05-08 08:50 51.68825 -0.16331 24102 ft 401 kts 205°
2026-05-08 08:50 51.66295 -0.18218 24105 ft 400 kts 205°
2026-05-08 08:50 51.63776 -0.20115 24105 ft 400 kts 205°
2026-05-08 08:50 51.61238 -0.21988 24101 ft 401 kts 205°
2026-05-08 08:51 51.58702 -0.23853 24101 ft 401 kts 205°
2026-05-08 08:51 51.56165 -0.25748 24099 ft 402 kts 205°
2026-05-08 08:51 51.53623 -0.27630 24101 ft 403 kts 205°
2026-05-08 08:51 51.51069 -0.29501 24100 ft 403 kts 205°
2026-05-08 08:52 51.48517 -0.31369 24100 ft 403 kts 205°
2026-05-08 08:52 51.45977 -0.33267 24100 ft 403 kts 205°
2026-05-08 08:52 51.43434 -0.35136 24100 ft 403 kts 205°
2026-05-08 08:52 51.40873 -0.37004 24101 ft 403 kts 205°
2026-05-08 08:53 51.38324 -0.38869 24100 ft 403 kts 205°
2026-05-08 08:53 51.35811 -0.40713 24100 ft 403 kts 205°
2026-05-08 08:53 51.33253 -0.42581 24103 ft 404 kts 205°
2026-05-08 08:53 51.30704 -0.44457 24082 ft 404 kts 205°
2026-05-08 08:54 51.28152 -0.46323 24082 ft 404 kts 205°
2026-05-08 08:54 51.25639 -0.48125 24074 ft 385 kts 204°
2026-05-08 08:54 51.23216 -0.49826 23755 ft 379 kts 204°
2026-05-08 08:54 51.20791 -0.51522 22940 ft 382 kts 204°
2026-05-08 08:55 51.18356 -0.53229 22064 ft 372 kts 204°
2026-05-08 08:55 51.16114 -0.54834 21202 ft 345 kts 204°
2026-05-08 08:55 51.13952 -0.56364 20342 ft 335 kts 204°
2026-05-08 08:55 51.11848 -0.57836 19506 ft 325 kts 204°
2026-05-08 08:56 51.09807 -0.59266 18702 ft 317 kts 204°
2026-05-08 08:56 51.07812 -0.60664 17820 ft 311 kts 204°
2026-05-08 08:56 51.05899 -0.62195 16874 ft 304 kts 217°
2026-05-08 08:56 51.04602 -0.64727 15991 ft 301 kts 246°
2026-05-08 08:57 51.04103 -0.67953 15140 ft 299 kts 260°
2026-05-08 08:57 51.03798 -0.71198 14303 ft 296 kts 260°
2026-05-08 08:57 51.03495 -0.74413 13413 ft 292 kts 260°
2026-05-08 08:57 51.03260 -0.77599 12620 ft 293 kts 261°
2026-05-08 08:58 51.02935 -0.80817 11880 ft 295 kts 257°
2026-05-08 08:58 51.02535 -0.83949 11162 ft 289 kts 257°
2026-05-08 08:58 51.02111 -0.87101 10635 ft 293 kts 256°
2026-05-08 08:58 51.01697 -0.90127 10108 ft 267 kts 256°
2026-05-08 08:59 51.01290 -0.93059 9524 ft 276 kts 256°
2026-05-08 08:59 51.00871 -0.96081 8952 ft 283 kts 255°
2026-05-08 08:59 51.00461 -0.99062 8407 ft 267 kts 255°
2026-05-08 08:59 51.00071 -1.01897 7838 ft 256 kts 254°
2026-05-08 09:00 50.99680 -1.04642 7374 ft 252 kts 254°
2026-05-08 09:00 50.99296 -1.07336 6945 ft 249 kts 254°
2026-05-08 09:00 50.98923 -1.09996 6545 ft 246 kts 254°
2026-05-08 09:00 50.98549 -1.12637 6077 ft 244 kts 254°
2026-05-08 09:01 50.98177 -1.15259 5595 ft 243 kts 253°
2026-05-08 09:01 50.97811 -1.17873 5132 ft 242 kts 254°
2026-05-08 09:01 50.97450 -1.20480 4679 ft 241 kts 254°
2026-05-08 09:01 50.97096 -1.23062 4205 ft 238 kts 254°
2026-05-08 09:02 50.96751 -1.25577 3741 ft 236 kts 253°
2026-05-08 09:02 50.96409 -1.28095 3330 ft 226 kts 254°
2026-05-08 09:02 50.96091 -1.30420 3074 ft 208 kts 253°
2026-05-08 09:02 50.95767 -1.32624 3046 ft 199 kts 246°
2026-05-08 09:03 50.94945 -1.34197 3055 ft 183 kts 204°
2026-05-08 09:03 50.93780 -1.35050 3053 ft 186 kts 200°
2026-05-08 09:03 50.92586 -1.35855 3060 ft 187 kts 199°
2026-05-08 09:03 50.91423 -1.36622 3057 ft 174 kts 198°
2026-05-08 09:04 50.90334 -1.37315 3108 ft 166 kts 197°
2026-05-08 09:04 50.89249 -1.38001 3117 ft 169 kts 198°
2026-05-08 09:04 50.88171 -1.38685 3067 ft 167 kts 198°
2026-05-08 09:04 50.87099 -1.39349 3046 ft 165 kts 198°
2026-05-08 09:05 50.86018 -1.39952 3023 ft 163 kts 194°
2026-05-08 09:05 50.84922 -1.40420 3011 ft 163 kts 192°
2026-05-08 09:05 50.83816 -1.40852 2984 ft 166 kts 192°
2026-05-08 09:05 50.82674 -1.41242 2676 ft 168 kts 191°
2026-05-08 09:06 50.81664 -1.42123 2279 ft 174 kts 229°
2026-05-08 09:06 50.81400 -1.43980 1928 ft 181 kts 279°
2026-05-08 09:06 50.82092 -1.45581 1773 ft 181 kts 328°
2026-05-08 09:06 50.83283 -1.45934 1731 ft 175 kts 17°
2026-05-08 09:07 50.84411 -1.45275 1723 ft 175 kts 24°
2026-05-08 09:07 50.85533 -1.44561 1702 ft 172 kts 26°
2026-05-08 09:07 50.86605 -1.43776 1680 ft 165 kts 36°
2026-05-08 09:07 50.87415 -1.42539 1719 ft 163 kts 51°
2026-05-08 09:08 50.88276 -1.41349 1680 ft 164 kts 46°
2026-05-08 09:08 50.89078 -1.40246 1541 ft 141 kts 45°
2026-05-08 09:08 50.89808 -1.39312 1300 ft 132 kts 43°
2026-05-08 09:08 50.90549 -1.38465 1042 ft 130 kts 37°
2026-05-08 09:09 50.91336 -1.37753 833 ft 132 kts 35°
2026-05-08 09:09 50.91416 -1.37687 826 ft 131 kts 33°
2026-05-08 09:09 50.92036 -1.36840 727 ft 124 kts 21°
2026-05-08 09:09 50.92965 -1.36617 796 ft 141 kts 17°
2026-05-08 09:10 50.93774 -1.35873 1270 ft 130 kts 47°
2026-05-08 09:10 50.94467 -1.34776 1481 ft 151 kts 72°
2026-05-08 09:10 50.94539 -1.33169 1901 ft 151 kts 101°
2026-05-08 09:10 50.93971 -1.31772 2242 ft 167 kts 143°
2026-05-08 09:11 50.93032 -1.30643 2804 ft 174 kts 148°
2026-05-08 09:11 50.91852 -1.30172 2982 ft 174 kts 173°
2026-05-08 09:11 50.90684 -1.30474 3040 ft 174 kts 200°
2026-05-08 09:11 50.89554 -1.31218 3124 ft 177 kts 198°
2026-05-08 09:12 50.88409 -1.31983 3085 ft 180 kts 200°
2026-05-08 09:12 50.87291 -1.32749 2894 ft 172 kts 200°
2026-05-08 09:12 50.86207 -1.33487 2666 ft 170 kts 200°
2026-05-08 09:12 50.85128 -1.34221 2546 ft 167 kts 200°
2026-05-08 09:13 50.84106 -1.35070 2511 ft 166 kts 207°
2026-05-08 09:13 50.83177 -1.36106 2499 ft 163 kts 217°
2026-05-08 09:13 50.82347 -1.37274 2501 ft 159 kts 219°
2026-05-08 09:13 50.81570 -1.38512 2479 ft 161 kts 232°
2026-05-08 09:14 50.81225 -1.40220 2486 ft 164 kts 247°
2026-05-08 09:14 50.80653 -1.41734 2401 ft 163 kts 234°
2026-05-08 09:14 50.80516 -1.43451 2200 ft 168 kts 288°
2026-05-08 09:14 50.81322 -1.44780 2021 ft 175 kts 339°
2026-05-08 09:15 50.82487 -1.44774 1861 ft 168 kts 30°
2026-05-08 09:15 50.83408 -1.43720 1748 ft 163 kts 43°
2026-05-08 09:15 50.84245 -1.42558 1715 ft 159 kts 46°
2026-05-08 09:15 50.85115 -1.41478 1690 ft 159 kts 38°
2026-05-08 09:16 50.86098 -1.40657 1700 ft 159 kts 27°
2026-05-08 09:16 50.87112 -1.40015 1643 ft 158 kts 25°
2026-05-08 09:16 50.88136 -1.39528 1566 ft 149 kts 21°
2026-05-08 09:16 50.89108 -1.39016 1422 ft 142 kts 25°
2026-05-08 09:17 50.89983 -1.38477 1193 ft 138 kts 25°
2026-05-08 09:17 50.90886 -1.38003 911 ft 134 kts 19°
2026-05-08 09:17 50.91757 -1.37520 650 ft 129 kts 26°
2026-05-08 09:17 50.92581 -1.37042 484 ft 130 kts 21°
2026-05-08 09:18 50.93429 -1.36573 314 ft 125 kts 27°
2026-05-08 09:18 50.94244 -1.36115 91 ft 125 kts 27°
2026-05-08 09:18 50.94984 -1.35702 40 ft 90 kts 18°
2026-05-08 09:18 50.95401 -1.35472 41 ft 44 kts 18°
2026-05-08 09:19 50.95606 -1.35357 43 ft 25 kts 19°
2026-05-08 09:19 50.95763 -1.35274 42 ft 23 kts 17°
2026-05-08 09:19 50.95866 -1.35258 42 ft 11 kts
2026-05-08 09:19 50.95855 -1.35236 43 ft 6 kts 190°
2026-05-08 09:20 50.95805 -1.35248 42 ft 9 kts 189°
2026-05-08 09:20 50.95727 -1.35287 42 ft 15 kts 198°
2026-05-08 09:20 50.95604 -1.35357 43 ft 23 kts 200°
2026-05-08 09:20 50.95431 -1.35457 42 ft 29 kts 198°
2026-05-08 09:21 50.95240 -1.35558 39 ft 28 kts 199°
2026-05-08 09:21 50.95067 -1.35660 39 ft 22 kts 198°
2026-05-08 09:22 50.95039 -1.36001 39 ft 5 kts 288°
2026-05-08 09:23 50.95040 -1.36007 39 ft 1 kts 289°
2026-05-08 09:23 50.95041 -1.36012 39 ft 0 kts 289°